Temp
14 14 14 14 13 13 13 13 13 13 13 13 13 13 13 13 13 12 12 12 12 11 11 11 11 11 11 11 11 11 11 11 10 10 10 10 10 9 9 9 9 9
14 14 14 14 14 13 13 13 13 13 13 13 13 13 13 13 13 12 12 12 12 11 11 11 11 11 11 11 11 11 11 11 10 10 10 10 10 9 9 9 9 8
14 14 14 14 14 14 14 13 13 13 13 13 13 13 13 13 13 12 12 12 12 12 12 11 11 11 11 11 11 11 11 11 11 10 10 10 9 9 9 9 9 8
15 15 14 14 14 14 14 14 13 13 13 13 13 13 13 13 13 12 12 12 12 12 12 11 11 11 11 11 11 11 11 11 10 10 10 10 9 9 9 9 9 9
15 15 14 14 14 14 14 14 14 14 14 13 13 13 13 13 13 12 12 12 12 12 12 11 11 11 11 11 11 11 11 10 10 10 10 10 9 9 9 9 9 8
15 15 14 14 14 14 14 14 14 14 14 14 13 13 13 13 13 13 12 12 12 12 12 12 12 11 11 11 11 11 11 10 10 10 10 10 9 9 9 9 9 8
15 15 14 14 14 14 14 14 14 14 14 14 13 13 13 13 13 13 13 12 12 12 12 12 12 12 11 11 11 11 10 10 10 10 10 10 9 9 9 9 9 8
15 15 14 14 14 14 14 14 14 14 14 14 13 13 13 13 13 13 13 13 12 12 12 12 12 12 12 11 11 11 10 10 10 10 10 9 9 9 9 9 8 8
15 15 14 14 14 14 14 14 14 14 14 14 14 13 13 13 13 13 13 13 12 12 12 12 12 12 11 11 11 11 10 10 10 10 9 9 9 9 9 9 8 8
15 15 15 14 14 14 14 14 14 14 14 14 14 13 13 13 13 13 13 12 12 12 12 12 12 11 11 11 11 11 10 10 10 9 9 9 9 9 9 8 8 8
15 15 15 14 14 14 14 14 14 14 14 14 14 13 13 13 13 13 13 12 12 12 12 12 11 11 11 11 11 11 10 10 10 9 9 9 9 9 8 8 8 8
15 15 15 15 14 14 14 14 14 14 14 14 14 13 13 13 13 13 13 12 12 12 12 12 11 11 11 11 11 11 10 10 10 9 9 9 9 9 8 8 7 7
15 15 15 15 15 14 14 14 14 14 14 14 13 13 13 13 13 13 13 12 12 12 12 12 12 11 11 11 11 11 10 10 9 9 9 9 8 8 8 7 7 7
15 15 15 15 15 14 14 14 14 14 14 14 13 13 13 13 13 13 13 13 12 12 12 12 12 11 11 11 11 10 10 9 9 9 8 8 8 7 7 7 6 6
15 15 15 15 15 14 14 14 14 14 14 13 13 13 13 13 13 13 13 12 12 12 12 12 11 11 11 11 11 11 10 9 9 9 9 8 7 7 7 6 6 6
15 15 15 14 14 14 14 14 14 14 13 13 13 13 13 13 13 13 12 12 12 12 12 12 12 12 12 12 12 11 10 9 9 10 9 8 8 8 7 6 5 5
15 15 14 14 14 14 14 14 14 14 13 13 13 13 13 13 13 13 12 12 12 12 12 12 12 12 13 13 12 12 11 9 8 9 9 8 8 8 7 6 5 5
15 15 14 14 14 14 14 14 14 13 13 13 13 13 13 13 13 13 13 13 13 13 13 13 13 12 12 12 12 12 12 10 8 8 8 9 8 8 8 7 6 5
15 15 15 14 14 14 14 14 14 13 13 13 13 13 13 13 13 13 13 13 13 13 13 12 12 12 12 12 12 12 12 11 9 9 8 8 8 8 8 7 7 6
15 15 15 15 14 14 14 14 14 13 13 13 13 13 13 13 13 13 13 13 13 13 12 12 12 12 12 12 12 12 12 11 9 8 8 8 8 8 7 7 6 6
16 15 15 15 15 14 14 14 14 13 13 13 13 13 13 13 13 13 13 13 13 12 12 12 13 13 13 12 12 11 11 10 9 8 8 8 8 8 7 6 6 6
16 16 16 15 15 15 14 14 14 14 13 13 13 13 13 13 13 13 13 12 12 12 13 13 13 13 13 12 12 11 10 10 9 8 8 8 8 7 7 6 6 6
17 16 16 16 15 15 14 14 14 14 13 13 13 13 13 13 13 13 12 12 12 12 12 13 12 12 12 12 11 11 10 10 9 8 8 8 8 7 6 6 6 6
17 17 17 16 16 15 15 14 14 14 13 13 13 13 13 13 13 12 12 12 12 12 12 12 12 12 12 12 11 11 10 9 8 8 8 8 7 7 6 6 6 5
17 17 17 17 16 15 15 14 14 14 14 13 13 13 13 13 13 12 12 12 12 12 12 12 12 12 12 12 12 11 10 9 8 8 8 7 7 6 6 6 6 5
17 17 17 17 16 15 15 14 14 14 13 13 13 13 13 13 13 12 12 12 12 12 13 13 12 12 12 12 11 11 10 9 8 8 7 7 6 6 6 5 5 5
Height
3181 3182 3184 3186 3187 3188 3189 3190 3192 3193 3194 3195 3196 3197 3198 3199 3200 3201 3202 3202 3203 3204 3204 3204 3204 3204 3204 3205 3205 3205 3205 3205 3204 3204 3204 3203 3203 3202 3201 3200 3200 3200
3179 3181 3182 3184 3185 3186 3187 3189 3190 3191 3193 3194 3195 3196 3197 3198 3199 3200 3201 3201 3202 3202 3203 3203 3203 3203 3203 3203 3203 3204 3204 3203 3203 3203 3202 3202 3202 3201 3200 3199 3198 3198
3177 3179 3181 3182 3184 3185 3186 3187 3189 3190 3192 3193 3194 3195 3196 3197 3198 3199 3199 3200 3200 3201 3202 3202 3202 3202 3202 3201 3201 3201 3201 3201 3201 3201 3201 3200 3200 3199 3199 3198 3198 3196
3175 3177 3179 3181 3182 3183 3184 3186 3187 3189 3190 3192 3193 3194 3195 3195 3196 3197 3198 3199 3199 3200 3200 3201 3201 3200 3200 3200 3199 3199 3198 3198 3199 3199 3198 3198 3198 3197 3197 3197 3196 3196
3173 3175 3178 3179 3180 3181 3182 3183 3185 3187 3189 3190 3191 3192 3193 3194 3194 3195 3196 3197 3198 3198 3199 3199 3199 3199 3199 3199 3198 3197 3196 3196 3196 3196 3196 3196 3196 3195 3195 3194 3194 3194
3170 3173 3176 3177 3178 3180 3180 3182 3184 3186 3187 3188 3189 3190 3191 3192 3193 3194 3194 3196 3196 3197 3197 3197 3197 3198 3197 3197 3197 3196 3195 3195 3194 3194 3195 3195 3194 3193 3193 3192 3192 3191
3168 3171 3173 3175 3176 3177 3178 3180 3182 3184 3185 3186 3187 3188 3190 3190 3191 3192 3193 3194 3194 3195 3195 3195 3195 3196 3195 3195 3195 3194 3194 3193 3192 3192 3192 3192 3192 3191 3191 3190 3190 3189
3166 3168 3171 3173 3174 3175 3176 3178 3180 3182 3183 3184 3185 3186 3188 3189 3190 3190 3191 3191 3192 3192 3193 3193 3193 3193 3193 3192 3192 3192 3191 3191 3190 3190 3189 3189 3189 3189 3189 3188 3187 3186
3163 3166 3168 3170 3171 3173 3175 3176 3178 3180 3181 3182 3183 3184 3185 3187 3188 3188 3189 3189 3189 3189 3190 3190 3190 3190 3190 3190 3189 3189 3188 3188 3187 3187 3187 3186 3186 3186 3186 3185 3185 3184
3161 3163 3165 3167 3169 3170 3173 3174 3176 3177 3178 3179 3181 3182 3183 3184 3185 3186 3186 3187 3187 3187 3187 3187 3187 3187 3187 3187 3186 3186 3185 3185 3184 3184 3184 3184 3183 3183 3182 3182 3182 3182
3158 3160 3162 3164 3166 3168 3170 3172 3173 3175 3176 3177 3178 3180 3181 3182 3183 3183 3184 3184 3184 3185 3184 3184 3184 3183 3183 3184 3184 3183 3183 3182 3181 3181 3181 3182 3181 3180 3179 3179 3179 3178
3155 3157 3159 3161 3164 3166 3168 3169 3171 3172 3174 3175 3176 3177 3178 3179 3180 3180 3181 3181 3182 3182 3182 3182 3181 3181 3180 3180 3180 3180 3179 3179 3178 3178 3178 3178 3178 3177 3176 3176 3175 3175
3153 3155 3157 3159 3161 3164 3165 3167 3168 3170 3171 3172 3174 3175 3176 3176 3177 3177 3178 3179 3179 3179 3179 3179 3178 3178 3177 3177 3176 3176 3176 3176 3175 3174 3174 3174 3173 3173 3173 3173 3172 3171
3150 3152 3154 3157 3159 3161 3163 3164 3166 3167 3169 3170 3171 3172 3173 3174 3174 3175 3176 3176 3176 3176 3176 3176 3175 3175 3174 3173 3172 3172 3172 3172 3172 3171 3170 3169 3169 3168 3168 3168 3168 3167
3148 3150 3152 3154 3156 3158 3160 3161 3163 3165 3166 3167 3168 3169 3171 3172 3172 3172 3173 3173 3173 3173 3173 3173 3172 3172 3171 3170 3169 3168 3167 3168 3168 3167 3165 3165 3164 3164 3163 3163 3163 3163
3145 3147 3149 3151 3153 3155 3156 3158 3160 3162 3163 3163 3164 3166 3168 3169 3169 3169 3170 3170 3170 3170 3170 3169 3169 3169 3168 3167 3165 3164 3163 3164 3164 3163 3161 3161 3160 3160 3159 3159 3159 3158
3142 3144 3146 3148 3149 3151 3153 3155 3157 3159 3159 3160 3161 3162 3164 3165 3165 3165 3166 3166 3166 3166 3166 3166 3166 3166 3165 3164 3162 3160 3159 3159 3159 3159 3158 3158 3156 3155 3154 3154 3154 3154
3139 3141 3143 3144 3146 3148 3150 3152 3154 3155 3156 3156 3157 3158 3159 3161 3161 3161 3162 3162 3163 3163 3163 3163 3163 3163 3162 3161 3159 3157 3155 3154 3154 3154 3154 3153 3152 3151 3150 3150 3150 3150
3135 3137 3139 3141 3143 3145 3147 3148 3150 3151 3152 3153 3153 3154 3155 3156 3157 3157 3158 3159 3160 3160 3160 3160 3160 3159 3158 3157 3155 3153 3151 3150 3150 3150 3149 3149 3149 3148 3146 3147 3147 3146
3131 3133 3135 3137 3139 3141 3142 3144 3146 3147 3148 3149 3150 3151 3152 3153 3154 3155 3155 3155 3156 3156 3157 3157 3156 3155 3154 3153 3151 3149 3147 3146 3146 3145 3144 3144 3144 3143 3143 3144 3144 3143
3126 3129 3131 3133 3135 3137 3138 3140 3141 3143 3144 3145 3146 3147 3149 3150 3151 3151 3151 3152 3152 3152 3152 3152 3151 3150 3149 3147 3146 3144 3143 3142 3142 3141 3140 3140 3140 3139 3140 3140 3140 3139
3121 3124 3127 3129 3130 3132 3134 3136 3137 3139 3141 3142 3143 3144 3146 3147 3148 3148 3148 3148 3148 3148 3148 3147 3146 3145 3143 3142 3141 3140 3138 3138 3138 3138 3137 3137 3136 3136 3136 3136 3135 3135
3117 3119 3121 3123 3125 3128 3130 3132 3134 3136 3137 3138 3140 3142 3143 3144 3144 3145 3145 3146 3146 3145 3144 3143 3142 3141 3140 3138 3137 3135 3134 3134 3134 3134 3134 3133 3133 3133 3132 3132 3132 3132
3112 3114 3116 3118 3121 3124 3127 3129 3132 3133 3134 3135 3137 3138 3140 3140 3141 3141 3142 3143 3143 3143 3142 3141 3140 3139 3137 3135 3133 3132 3131 3130 3131 3131 3131 3131 3131 3130 3129 3129 3129 3128
3107 3109 3111 3114 3117 3121 3124 3126 3128 3130 3131 3133 3133 3134 3135 3136 3137 3138 3139 3140 3140 3139 3138 3138 3137 3136 3134 3132 3130 3128 3127 3127 3127 3127 3128 3128 3127 3127 3126 3126 3125 3125
3102 3105 3107 3109 3113 3117 3120 3122 3124 3126 3128 3128 3128 3129 3131 3132 3134 3135 3136 3136 3136 3135 3134 3133 3133 3131 3129 3128 3126 3124 3124 3123 3123 3124 3125 3125 3124 3123 3123 3122 3122 3121
Wind_Speed
18 18 18 18 17 17 15 15 15 13 13 12 12 11 8 7 6 5 5 5 5 6 7 8 9 11 12 12 13 15 17 19 19 19 18 19 19 20 23 24 22 20
19 19 19 18 17 17 15 15 15 14 13 13 12 9 7 6 6 5 6 6 7 7 9 10 11 12 13 14 16 17 19 21 21 21 21 21 21 21 23 24 23 21
20 20 20 18 17 17 16 16 16 15 13 13 10 8 7 6 6 6 6 8 9 9 10 12 13 14 15 17 19 21 21 22 23 23 23 23 23 23 23 24 24 22
21 21 20 18 17 17 17 17 17 14 12 11 9 7 7 6 6 5 6 8 9 11 11 13 14 15 17 18 21 23 24 25 25 25 25 25 25 25 25 25 25 24
22 22 21 19 17 18 18 18 16 13 10 9 9 8 7 7 7 6 6 7 9 11 13 14 15 16 18 20 22 24 26 27 28 28 27 27 27 27 27 27 26 26
23 23 22 20 18 18 19 18 15 12 10 9 9 9 8 8 8 8 8 8 10 12 13 15 16 17 19 21 23 24 26 28 29 29 30 29 29 29 28 29 28 27
24 24 23 21 19 19 19 17 15 13 12 11 10 10 10 9 9 9 10 11 12 13 15 17 18 19 22 24 25 26 27 28 30 31 31 31 31 31 30 30 30 29
25 24 24 22 21 20 18 16 14 13 13 12 12 11 10 10 10 10 11 13 14 15 17 18 20 21 23 26 28 29 29 31 31 32 32 32 32 32 32 32 31 30
25 25 25 24 22 21 18 16 14 13 13 13 12 11 11 10 10 11 12 15 16 17 17 19 20 22 24 26 29 31 32 33 34 34 33 34 33 32 33 33 32 31
26 25 26 25 24 21 18 16 15 15 14 13 13 12 12 11 11 11 13 15 17 18 19 21 22 24 26 28 30 32 34 35 36 36 35 35 35 34 34 34 33 33
26 26 26 26 24 21 19 17 16 16 15 14 13 12 12 12 12 13 14 15 17 19 21 23 25 26 28 30 32 34 36 37 37 38 37 36 36 36 36 35 33 33
26 26 25 25 23 21 19 18 17 16 16 15 14 13 13 14 14 15 15 16 18 20 22 24 26 28 30 31 32 34 37 38 38 38 37 36 36 36 37 35 33 33
26 25 24 23 22 21 20 19 18 17 16 15 14 14 14 14 16 17 17 19 21 23 25 27 28 30 31 32 34 36 38 38 39 38 37 36 36 37 36 34 32 32
24 23 23 23 22 21 21 20 19 18 17 17 16 15 15 16 18 19 21 22 23 25 27 29 30 31 31 33 35 37 38 38 38 38 36 35 35 36 35 33 32 32
23 23 23 23 22 22 22 22 20 19 19 18 18 16 16 18 20 22 22 23 24 25 27 28 29 29 30 32 34 36 38 37 35 35 35 33 33 33 33 32 31 32
24 24 23 23 23 24 23 23 22 21 20 20 19 19 19 20 21 22 22 23 24 25 26 26 26 25 26 28 32 35 37 34 32 32 32 32 31 31 33 33 32 32
25 25 24 23 23 23 24 23 22 22 21 22 22 21 21 21 22 22 23 23 24 24 22 21 20 21 23 27 31 35 35 33 31 30 29 30 30 32 35 35 33 33
27 27 26 24 24 23 23 22 22 22 23 23 23 23 22 22 23 24 24 24 23 20 17 16 17 20 24 28 31 35 36 34 31 29 29 30 30 32 35 34 32 32
28 28 27 26 25 24 23 23 22 23 23 24 24 24 24 24 25 25 25 24 20 16 13 15 19 24 29 33 34 35 36 34 30 29 30 31 31 31 33 32 29 28
27 29 29 28 27 27 26 25 25 25 25 25 25 25 25 26 25 25 24 21 17 13 13 18 24 30 36 41 39 36 36 34 30 30 32 31 31 31 31 28 23 22
27 29 30 29 29 29 29 28 28 28 27 26 26 27 26 25 25 24 21 17 14 14 17 25 33 37 42 45 42 37 35 34 31 30 31 29 30 31 28 23 19 20
27 29 30 31 31 30 29 29 29 28 27 27 28 27 26 25 23 20 16 14 13 16 24 31 36 38 41 45 42 37 35 33 29 26 25 26 28 28 26 23 21 22
29 30 32 33 32 30 28 27 27 26 27 28 28 27 25 23 19 17 15 14 15 21 28 31 35 37 39 42 40 36 33 30 25 22 23 24 26 26 26 27 27 24
31 33 34 34 32 29 27 26 25 26 27 27 27 26 24 21 20 19 18 17 19 24 27 31 36 38 38 39 37 34 32 26 21 21 23 24 25 25 27 30 28 23
34 35 35 35 32 28 27 26 26 27 27 27 27 26 24 23 23 22 20 20 22 25 27 34 40 39 36 36 35 34 31 25 20 20 22 23 25 27 29 30 26 20
35 35 35 35 32 28 27 27 28 28 28 29 29 27 26 26 25 22 21 22 24 26 30 37 40 37 34 34 34 32 30 25 20 19 21 25 28 29 29 26 21 16
Wind_Direction
233 229 225 221 220 223 216 209 212 211 204 201 202 203 196 190 197 199 208 226 230 233 249 269 283 293 303 313 320 324 329 334 338 340 341 341 342 344 345 345 339 329
230 224 219 216 217 219 212 203 206 207 202 200 200 197 191 189 192 195 211 227 240 247 257 270 283 290 296 304 312 317 322 328 333 338 339 337 335 337 342 346 343 334
225 218 215 215 214 215 209 202 203 203 198 198 199 197 197 201 201 202 214 227 242 254 263 272 281 289 295 301 307 312 315 319 324 331 334 334 332 331 334 339 342 338
221 215 214 214 212 213 210 205 203 201 199 200 204 208 209 217 222 223 225 231 244 256 265 273 277 284 291 298 304 310 313 316 319 322 325 328 330 330 330 332 335 338
218 213 212 213 211 210 210 209 206 204 207 208 212 221 225 232 242 250 254 250 253 260 267 275 280 284 291 298 303 309 313 315 316 317 318 320 323 326 328 330 330 332
216 212 212 213 212 211 212 213 210 210 217 221 223 229 234 244 253 263 274 273 270 272 276 282 289 292 296 300 303 306 310 312 314 316 316 316 317 318 321 324 326 326
214 211 212 213 212 214 216 216 216 217 224 230 235 239 242 251 263 271 281 287 286 286 288 291 295 298 298 299 301 302 304 306 309 313 315 314 313 313 314 316 320 322
215 213 213 213 214 216 217 219 221 224 229 234 241 250 256 261 271 280 286 291 292 293 295 297 299 301 301 301 302 301 301 301 304 306 309 312 312 311 310 311 313 316
216 214 214 215 217 219 220 222 226 231 237 241 247 256 264 269 277 284 287 289 292 295 298 300 302 304 304 304 304 303 301 299 300 301 304 307 309 308 307 308 309 310
217 216 216 218 220 222 223 225 230 237 242 247 252 257 265 273 279 281 283 286 289 293 298 301 303 304 304 305 305 304 302 300 299 300 302 305 307 307 306 307 307 307
219 218 217 219 222 224 226 228 232 238 244 251 254 258 265 271 276 279 281 284 288 293 296 299 301 303 303 303 304 303 302 300 300 300 302 304 306 307 306 305 305 305
221 221 220 221 223 225 228 230 234 238 243 249 253 258 264 268 274 281 285 288 292 294 296 298 300 301 302 302 302 302 301 300 300 300 302 304 305 304 302 302 302 301
224 224 224 224 225 227 229 231 234 238 241 244 249 255 261 268 276 281 285 288 290 291 293 295 297 297 299 300 300 300 300 300 300 301 303 304 302 300 299 298 297 296
225 226 227 227 227 228 231 232 233 236 239 241 244 248 256 267 274 278 282 284 285 286 288 290 292 294 296 298 297 298 298 298 300 301 300 299 298 298 297 294 292 291
224 225 226 226 226 226 228 231 231 234 238 241 243 246 253 262 268 272 277 278 280 282 284 286 289 292 295 296 296 296 296 297 301 302 299 297 297 297 294 289 286 285
224 226 227 225 225 225 225 227 230 232 236 242 245 248 252 256 262 267 270 274 279 282 285 287 290 294 297 297 297 296 296 299 303 303 302 304 302 297 291 285 280 277
226 226 226 225 224 224 224 226 227 229 234 241 247 250 252 255 260 264 267 274 281 284 287 291 296 301 301 300 299 298 298 301 302 301 302 302 298 292 289 284 279 277
226 227 227 227 225 224 224 225 226 229 234 240 247 251 254 257 260 264 271 278 281 283 288 295 303 308 307 306 305 302 301 301 301 301 299 295 292 291 291 290 287 285
222 225 227 228 228 228 228 227 228 231 234 240 246 251 254 257 261 268 276 281 281 282 290 299 306 312 314 313 310 305 302 301 299 298 295 292 292 293 294 293 292 290
216 220 223 225 227 229 231 231 232 233 237 241 245 249 253 257 265 272 277 278 278 281 292 305 312 316 316 313 308 302 300 298 296 295 293 292 292 291 291 291 289 288
215 215 218 220 223 225 228 230 232 234 238 242 245 249 254 261 269 272 270 268 269 280 301 314 317 315 311 307 303 299 296 295 292 292 292 292 292 292 292 291 287 284
216 216 217 218 220 222 224 226 230 233 237 241 245 249 255 263 267 263 258 258 268 291 310 318 318 313 308 305 300 294 291 291 290 288 288 288 288 291 293 292 289 284
216 218 219 220 221 221 222 224 228 232 237 242 246 253 259 260 253 243 241 247 270 296 309 315 316 312 306 301 296 289 287 289 288 284 285 286 285 286 289 290 287 281
217 219 222 224 224 221 222 225 229 234 241 247 252 256 255 246 233 229 235 248 275 299 312 317 316 310 301 295 291 286 285 286 284 281 282 283 281 280 281 282 281 274
221 221 223 227 227 224 224 230 235 239 246 251 254 251 243 234 229 231 242 260 283 301 309 310 311 306 297 292 289 285 285 284 278 276 276 274 274 274 276 278 276 271
226 227 229 231 232 230 232 237 240 243 248 250 248 241 234 231 232 238 254 273 289 298 298 299 304 301 293 289 286 284 287 285 277 268 263 263 267 271 274 273 269 260